Home   Weather   41°07'N, 16°24'E   Past weeks
Flag for Italy

Past Weather in 41°07'N, 16°24'E, Italy — Yesterday and Last 2 Weeks

Now
70 °F

Passing clouds.


Feels Like: 70 °F
Forecast: 71 / 60 °F
Wind: 5 mph from West

Location: Bari / Palese Macchie

Current Time: Oct 16, 2019 at 9:43:04 pm

Latest Report: Oct 16, 2019 at 8:50 pm


Visibility: N/A

Pressure: 30.04 "Hg

Humidity: 73%

Dew Point: 61 °F

Location of 41°07'N, 16°24'ELocation

Past Weather in 41°07'N, 16°24'E — Graph

°F

41°07'N, 16°24'E Temperature Yesterday

Maximum temperature yesterday: 77 °F (at 1:20 pm)
Minimum temperature yesterday: 55 °F (at 2:20 am)
Average temperature yesterday: 68 °F

High & Low Weather Summary for the Past Weeks

 TemperatureHumidityPressure
High84 °F (Oct 10, 1:20 pm)100% (Oct 2, 4:50 am)30.24 "Hg (Oct 2, 4:50 am)
Low52 °F (Oct 9, 1:20 am)35% (Oct 10, 1:50 pm)29.65 "Hg (Oct 3, 3:50 am)
Average66 °F75%29.98 "Hg
* Reported Oct 1 8:20 pm — Oct 16 8:20 pm, 41°07'N, 16°24'E. Weather by CustomWeather, © 2019

Note: Actual official high and low records may vary slightly from our data, if they occured in-between our weather recording intervals... More about our weather records

Advertising

41°07'N, 16°24'E Weather History for the Previous 24 Hours

Scroll right to see more
 ConditionsComfort  
Time TempWeatherWind HumidityBarometerVisibility
8:20 pm
Wed, Oct 16
70 °FPassing clouds.3 mph73%30.04 "HgN/A
7:50 pm70 °FPassing clouds.2 mph73%30.04 "HgN/A
7:20 pm70 °FPassing clouds.2 mph73%30.04 "HgN/A
6:50 pm70 °FPassing clouds.2 mph73%30.01 "HgN/A
6:20 pm72 °FPassing clouds.2 mph65%30.01 "HgN/A
5:50 pm73 °FScattered clouds.5 mph61%30.01 "HgN/A
5:20 pm75 °FScattered clouds.6 mph61%30.01 "HgN/A
4:50 pm73 °FScattered clouds.6 mph65%30.01 "HgN/A
4:20 pm73 °FScattered clouds.7 mph65%30.01 "HgN/A
3:50 pm73 °FScattered clouds.8 mph65%30.01 "HgN/A
3:20 pm75 °FScattered clouds.7 mph65%30.01 "HgN/A
2:50 pm75 °FScattered clouds.9 mph65%30.01 "HgN/A
2:20 pm75 °FScattered clouds.9 mph65%30.01 "HgN/A
1:50 pm75 °FScattered clouds.8 mph65%30.01 "HgN/A
1:20 pm75 °FScattered clouds.9 mph65%30.01 "HgN/A
12:50 pm75 °FScattered clouds.9 mph65%30.01 "HgN/A
12:20 pm77 °FScattered clouds.10 mph54%30.01 "HgN/A
11:50 am81 °FPassing clouds.8 mph42%30.01 "HgN/A
11:20 am79 °FPassing clouds.5 mph48%30.01 "HgN/A
10:50 am79 °FSunny.7 mph51%30.01 "Hg10 mi
10:20 am73 °FSunny.6 mph65%30.01 "Hg10 mi
9:50 am72 °FPassing clouds.6 mph69%30.01 "HgN/A
9:20 am70 °FPassing clouds.6 mph73%30.01 "HgN/A
8:50 am70 °FPassing clouds.7 mph73%30.01 "HgN/A
8:20 am68 °FPassing clouds.7 mph78%30.01 "HgN/A
7:50 am66 °FPassing clouds.6 mph78%29.98 "HgN/A
7:20 am66 °FScattered clouds.6 mph78%29.98 "HgN/A
6:50 am64 °FPassing clouds.6 mph83%29.98 "HgN/A
6:20 am63 °FClear.6 mph88%29.98 "Hg10 mi
5:20 am64 °FClear.7 mph88%29.98 "Hg10 mi
4:20 am64 °FClear.7 mph88%29.98 "Hg10 mi
3:50 am64 °FClear.6 mph88%29.98 "Hg10 mi
2:50 am66 °FClear.6 mph88%30.01 "Hg10 mi
2:20 am66 °FClear.6 mph88%30.01 "Hg10 mi
1:50 am66 °FClear.6 mph88%30.01 "Hg10 mi
1:20 am66 °FClear.7 mph88%30.01 "Hg10 mi
12:50 am66 °FClear.7 mph88%30.01 "Hg10 mi
12:20 am68 °FClear.7 mph83%30.01 "Hg10 mi
11:50 pm
Tue, Oct 15
68 °FClear.8 mph83%30.01 "Hg10 mi
11:20 pm68 °FClear.7 mph83%30.01 "Hg10 mi
10:50 pm68 °FClear.7 mph83%30.01 "Hg10 mi
10:20 pm68 °FClear.7 mph78%30.01 "Hg10 mi
9:50 pm68 °FClear.6 mph78%30.01 "Hg10 mi
9:20 pm68 °FClear.7 mph78%30.01 "Hg10 mi
Weather by CustomWeather, © 2019

See weather overview